Location: LDNL
(36.4545°S, 141.6685°E)
Time: 12:08:30
(UTC+10:00)

Tiros 1 despin weight - Pass Details

Date: 08 August 2022
Orbit: 590 x 639 km, 48.2° (Epoch: 23 September)

Event Time Altitude Azimuth Distance (km) Brightness Sun altitude
Rises 03:29:06 0° 270° (W) 2,933 - -47.4°
Reaches altitude 10° 03:31:42 10° 258° (WSW) 2,035 - -46.9°
Maximum altitude 03:35:45 28° 199° (SSW) 1,221 - -46.1°
Drops below altitude 10° 03:39:50 10° 139° (SE) 2,054 - -45.3°
Exits shadow 03:41:33 - 130° (SE) 2,635 ? -45.0°
Sets 03:42:28 0° 127° (SE) 2,966 ? -44.8°
